EW7486 Weather Reports


time (UTC)temp
F
wind
direction
speed
knots
gust
knots
rain 1hr
in
rain 24hr
in
rain mn
in
humidity
%
barometer
mb
20260506013026 72 227 0.0 0.0 0.00 0.00 0.00 54 1010.5
20260506011602 72 227 0.0 0.0 0.00 0.00 0.00 51 1010.6
20260506010031 73 227 0.0 0.0 0.00 0.00 0.00 49 1011.1
20260506004518 74 227 0.0 0.0 0.00 0.00 0.00 48 1010.8
20260506003030 74 227 0.0 0.9 0.00 0.00 0.00 47 1010.6
20260506001509 75 227 0.0 0.0 0.00 0.00 0.00 45 1010.8
20260506000159 75 229 0.0 0.0 0.00 0.00 0.00 44 1010.8
20260505234619 76 229 0.0 1.7 0.00 0.00 0.00 42 1010.7
20260505233038 76 188 0.0 1.7 0.00 0.00 0.00 42 1010.7
20260505231511 77 215 0.0 1.7 0.00 0.00 0.00 40 1010.6
20260505230142 78 198 0.0 4.3 0.00 0.00 0.00 38 1010.6
20260505224526 79 184 0.0 1.7 0.00 0.00 0.00 38 1010.5
20260505223102 80 240 0.0 1.7 0.00 0.00 0.00 37 1010.6
20260505221627 80 131 0.0 1.7 0.00 0.00 0.00 36 1010.5
20260505220005 81 229 0.0 1.7 0.00 0.00 0.00 36 1010.5
20260505214547 81 197 0.0 1.7 0.00 0.00 0.00 35 1010.5
20260505213109 81 215 0.0 4.3 0.00 0.00 0.00 34 1010.6
20260505211542 81 207 0.0 1.7 0.00 0.00 0.00 36 1010.7
20260505210059 81 213 0.0 5.2 0.00 0.00 0.00 35 1010.8
20260505204642 81 171 0.0 2.6 0.00 0.00 0.00 36 1010.8
20260505203146 80 216 0.0 1.7 0.00 0.00 0.00 36 1010.9
20260505201550 79 146 0.0 1.7 0.00 0.00 0.00 36 1011.2
20260505200059 79 108 0.0 1.7 0.00 0.00 0.00 37 1011.3
20260505194546 80 214 0.0 1.7 0.00 0.00 0.00 36 1011.4
20260505193042 81 237 0.0 2.6 0.00 0.00 0.00 36 1011.8
20260505191539 80 198 0.0 1.7 0.00 0.00 0.00 36 1012.3
20260505190045 79 225 0.0 1.7 0.00 0.00 0.00 40 1012.5
20260505184533 78 183 0.0 1.7 0.00 0.00 0.00 39 1012.7
20260505183041 77 134 0.0 5.2 0.00 0.00 0.00 38 1012.7
20260505181526 77 136 0.0 2.6 0.00 0.00 0.00 40 1013.0
20260505174600 76 224 0.0 3.5 0.00 0.00 0.00 41 1013.3
20260505173044 75 134 0.0 1.7 0.00 0.00 0.00 43 1013.6
20260505171555 75 234 0.0 5.2 0.00 0.00 0.00 42 1013.7
20260505170147 74 121 0.0 1.7 0.00 0.00 0.00 44 1013.8
20260505164634 73 296 0.0 1.7 0.00 0.00 0.00 47 1013.6
20260505163044 71 200 0.0 2.6 0.00 0.00 0.00 47 1013.6
20260505161541 70 293 0.0 3.5 0.00 0.00 0.00 53 1013.9
20260505153029 66 278 0.0 0.0 0.00 0.00 0.00 56 1014.4
20260505151509 65 298 0.0 0.0 0.00 0.00 0.00 58 1014.4
20260505150137 63 187 0.0 0.0 0.00 0.00 0.00 63 1014.6
20260505124502 54 136 0.0 0.0 0.00 0.00 0.00 84 1014.0
20260505123100 53 136 0.0 0.0 0.00 0.00 0.00 84 1014.1
20260505121558 53 136 0.0 0.0 0.00 0.00 0.00 84 1013.8
20260505120105 52 136 0.0 0.0 0.00 0.00 0.00 85 1013.6
20260505114554 52 136 0.0 0.0 0.00 0.00 0.00 85 1013.4
20260505113055 53 136 0.0 0.0 0.00 0.00 0.00 84 1013.2
20260505111549 53 136 0.0 0.0 0.00 0.00 0.00 82 1013.2
20260505101545 54 136 0.0 0.0 0.00 0.00 0.00 76 1012.8
20260505100043 54 136 0.0 0.0 0.00 0.00 0.00 77 1012.9
20260505094542 54 136 0.0 0.0 0.00 0.00 0.00 78 1012.7
20260505093041 54 136 0.0 0.0 0.00 0.00 0.00 78 1012.7
20260505091540 54 136 0.0 0.0 0.00 0.00 0.00 79 1012.7
20260505090041 53 136 0.0 0.0 0.00 0.00 0.00 79 1012.7
20260505084546 53 136 0.0 0.0 0.00 0.00 0.00 81 1012.7
20260505083039 53 136 0.0 1.7 0.00 0.00 0.00 83 1012.7
20260505081537 53 191 0.0 0.0 0.00 0.00 0.00 82 1012.5
20260505080038 54 191 0.0 0.0 0.00 0.00 0.00 83 1012.2
20260505074536 54 191 0.0 0.0 0.00 0.00 0.00 82 1012.2
20260505073040 55 191 0.0 0.0 0.00 0.00 0.00 82 1012.3
20260505071530 55 191 0.0 0.0 0.00 0.00 0.00 82 1012.4
20260505070037 56 191 0.0 0.0 0.00 0.00 0.00 78 1012.4
20260505064524 56 191 0.0 0.0 0.00 0.00 0.00 76 1012.5
20260505063023 57 191 0.0 0.0 0.00 0.00 0.00 76 1012.6
20260505061525 57 191 0.0 0.0 0.00 0.00 0.00 77 1012.7
20260505060019 57 191 0.0 0.0 0.00 0.00 0.00 74 1012.7
20260505054517 58 191 0.0 0.0 0.00 0.00 0.00 74 1012.6
20260505053019 58 191 0.0 0.0 0.00 0.00 0.00 71 1012.7
20260505051519 59 191 0.0 0.0 0.00 0.00 0.00 68 1012.7
20260505041504 61 191 0.0 0.0 0.00 0.00 0.00 68 1012.7
20260505040101 62 191 0.0 0.0 0.00 0.00 0.00 66 1012.7
20260505034600 63 191 0.0 0.0 0.00 0.00 0.00 64 1012.7
20260505033104 64 191 0.0 0.0 0.00 0.00 0.00 56 1012.8
20260505031607 65 191 0.0 0.0 0.00 0.00 0.00 53 1012.7
20260505030052 65 191 0.0 0.0 0.00 0.00 0.00 51 1012.8
20260505024622 66 191 0.0 0.0 0.00 0.00 0.00 50 1012.9
20260505023008 66 191 0.0 0.0 0.00 0.00 0.00 51 1012.9
20260505021534 67 191 0.0 0.0 0.00 0.00 0.00 49 1012.6
20260505020109 68 191 0.0 0.0 0.00 0.00 0.00 49 1012.5
20260505014602 68 191 0.0 0.0 0.00 0.00 0.00 49 1012.4